Hourly Weather Al Jubayl

Today, 6 March, Saturday

Time Temperature Precipitation Wind Pressure Humidity
00:00 +18°C° 0 mm 7 mps 764 mmHg 57%
01:00 +18°C° 0 mm 8 mps 764 mmHg 55%
02:00 +18°C° 0 mm 8 mps 764 mmHg 53%
03:00 +18°C° 0 mm 9 mps 763 mmHg 51%
04:00 +17°C° 0 mm 9 mps 764 mmHg 53%
05:00 +17°C° 0 mm 9 mps 764 mmHg 54%
06:00 +17°C° 0 mm 9 mps 765 mmHg 55%
07:00 +18°C° 0 mm 9 mps 765 mmHg 52%
08:00 +20°C° 0 mm 8 mps 765 mmHg 50%
09:00 +21°C° 0 mm 8 mps 766 mmHg 47%
10:00 +22°C° 0 mm 9 mps 765 mmHg 41%
11:00 +22°C° 0 mm 9 mps 765 mmHg 35%
12:00 +23°C° 0 mm 9 mps 765 mmHg 29%
13:00 +23°C° 0 mm 9 mps 764 mmHg 28%
14:00 +23°C° 0 mm 9 mps 764 mmHg 27%
15:00 +23°C° 0 mm 9 mps 763 mmHg 25%
16:00 +22°C° 0 mm 8 mps 763 mmHg 29%
17:00 +21°C° 0 mm 7 mps 763 mmHg 32%
18:00 +20°C° 0 mm 6 mps 763 mmHg 36%
19:00 +20°C° 0 mm 6 mps 763 mmHg 38%
20:00 +19°C° 0 mm 5 mps 763 mmHg 40%
21:00 +19°C° 0 mm 5 mps 764 mmHg 43%
22:00 +19°C° 0 mm 5 mps 763 mmHg 39%
23:00 +17°C° 0 mm 5 mps 763 mmHg 35%

Tomorrow, 7 March, Sunday

Time Temperature Precipitation Wind Pressure Humidity
00:00 +17°C° 0 mm 6 mps 763 mmHg 32%
01:00 +17°C° 0 mm 6 mps 763 mmHg 31%
02:00 +16°C° 0 mm 7 mps 762 mmHg 30%
03:00 +16°C° 0 mm 7 mps 762 mmHg 30%
04:00 +16°C° 0 mm 7 mps 762 mmHg 31%
05:00 +15°C° 0 mm 7 mps 762 mmHg 33%
06:00 +15°C° 0 mm 7 mps 762 mmHg 35%
07:00 +17°C° 0 mm 7 mps 763 mmHg 33%
08:00 +20°C° 0 mm 7 mps 763 mmHg 31%
09:00 +21°C° 0 mm 7 mps 763 mmHg 29%
10:00 +22°C° 0 mm 8 mps 763 mmHg 27%
11:00 +23°C° 0 mm 8 mps 762 mmHg 24%
12:00 +24°C° 0 mm 8 mps 762 mmHg 21%
13:00 +24°C° 0 mm 7 mps 761 mmHg 22%
14:00 +24°C° 0 mm 7 mps 761 mmHg 22%
15:00 +24°C° 0 mm 7 mps 760 mmHg 23%
16:00 +22°C° 0 mm 6 mps 760 mmHg 27%
17:00 +21°C° 0 mm 5 mps 760 mmHg 32%
18:00 +20°C° 0 mm 4 mps 760 mmHg 37%
19:00 +19°C° 0 mm 3 mps 760 mmHg 38%
20:00 +19°C° 0 mm 3 mps 760 mmHg 40%
21:00 +18°C° 0 mm 2 mps 760 mmHg 41%
22:00 +18°C° 0 mm 2 mps 760 mmHg 39%
23:00 +18°C° 0 mm 2 mps 760 mmHg 36%

Day after tomorrow, 8 March, Monday

Time Temperature Precipitation Wind Pressure Humidity
00:00 +18°C° 0 mm 3 mps 760 mmHg 34%
01:00 +18°C° 0 mm 2 mps 760 mmHg 33%
02:00 +17°C° 0 mm 2 mps 759 mmHg 31%
03:00 +17°C° 0 mm 2 mps 759 mmHg 30%
04:00 +17°C° 0 mm 2 mps 759 mmHg 30%
05:00 +16°C° 0 mm 2 mps 759 mmHg 30%
06:00 +16°C° 0 mm 2 mps 760 mmHg 29%
07:00 +18°C° 0 mm 2 mps 760 mmHg 25%
08:00 +21°C° 0 mm 2 mps 760 mmHg 21%
09:00 +24°C° 0 mm 2 mps 761 mmHg 17%
10:00 +25°C° 0 mm 2 mps 760 mmHg 16%
11:00 +26°C° 0 mm 1 mps 760 mmHg 14%
12:00 +28°C° 0 mm 1 mps 759 mmHg 12%
13:00 +28°C° 0 mm 2 mps 759 mmHg 13%
14:00 +28°C° 0 mm 3 mps 758 mmHg 13%
15:00 +29°C° 0 mm 3 mps 757 mmHg 14%
16:00 +27°C° 0 mm 4 mps 757 mmHg 18%
17:00 +26°C° 0 mm 5 mps 757 mmHg 22%
18:00 +23°C° 0 mm 5 mps 757 mmHg 25%
19:00 +23°C° 0 mm 5 mps 757 mmHg 28%
20:00 +22°C° 0 mm 5 mps 757 mmHg 30%
21:00 +22°C° 0 mm 5 mps 758 mmHg 32%
22:00 +22°C° 0 mm 5 mps 757 mmHg 33%
23:00 +21°C° 0 mm 4 mps 757 mmHg 35%

9 March, Tuesday

Time Temperature Precipitation Wind Pressure Humidity
00:00 +21°C° 0 mm 4 mps 757 mmHg 36%
01:00 +21°C° 0 mm 4 mps 757 mmHg 40%
02:00 +21°C° 0 mm 4 mps 756 mmHg 43%
03:00 +20°C° 0 mm 5 mps 756 mmHg 46%
04:00 +20°C° 0 mm 4 mps 757 mmHg 45%
05:00 +20°C° 0 mm 3 mps 757 mmHg 43%
06:00 +19°C° 0 mm 3 mps 757 mmHg 42%
07:00 +21°C° 0 mm 2 mps 758 mmHg 35%
08:00 +24°C° 0 mm 2 mps 759 mmHg 29%
09:00 +26°C° 0 mm 2 mps 759 mmHg 22%
10:00 +27°C° 0 mm 3 mps 759 mmHg 23%
11:00 +28°C° 0 mm 5 mps 759 mmHg 25%
12:00 +29°C° 0 mm 6 mps 759 mmHg 26%
13:00 +28°C° 0 mm 6 mps 759 mmHg 27%
14:00 +27°C° 0 mm 7 mps 758 mmHg 28%
15:00 +27°C° 0 mm 7 mps 758 mmHg 29%
16:00 +24°C° 0 mm 6 mps 759 mmHg 33%
17:00 +23°C° 0 mm 5 mps 759 mmHg 37%
18:00 +22°C° 0 mm 4 mps 760 mmHg 41%
19:00 +22°C° 0 mm 4 mps 760 mmHg 42%
20:00 +21°C° 0 mm 4 mps 760 mmHg 43%
21:00 +21°C° 0 mm 3 mps 761 mmHg 44%
22:00 +21°C° 0 mm 4 mps 761 mmHg 43%
23:00 +21°C° 0 mm 4 mps 760 mmHg 42%

10 March, Wednesday

Time Temperature Precipitation Wind Pressure Humidity
00:00 +21°C° 0 mm 5 mps 760 mmHg 42%
01:00 +21°C° 0 mm 5 mps 760 mmHg 42%
02:00 +20°C° 0 mm 5 mps 760 mmHg 42%
03:00 +20°C° 0 mm 5 mps 760 mmHg 42%
04:00 +20°C° 0 mm 5 mps 760 mmHg 47%
05:00 +20°C° 0 mm 5 mps 760 mmHg 52%
06:00 +19°C° 0 mm 5 mps 761 mmHg 58%
07:00 +21°C° 0 mm 5 mps 761 mmHg 49%
08:00 +23°C° 0 mm 5 mps 762 mmHg 40%
09:00 +25°C° 0 mm 5 mps 762 mmHg 31%
10:00 +26°C° 0 mm 5 mps 762 mmHg 28%
11:00 +27°C° 0 mm 5 mps 761 mmHg 25%
12:00 +28°C° 0 mm 5 mps 761 mmHg 22%
13:00 +28°C° 0 mm 6 mps 761 mmHg 22%
14:00 +28°C° 0 mm 6 mps 760 mmHg 22%
15:00 +27°C° 0 mm 6 mps 760 mmHg 23%
16:00 +26°C° 0 mm 5 mps 760 mmHg 27%
17:00 +25°C° 0 mm 5 mps 760 mmHg 32%
18:00 +23°C° 0 mm 4 mps 760 mmHg 37%
19:00 +22°C° 0 mm 3 mps 760 mmHg 40%
20:00 +21°C° 0 mm 2 mps 760 mmHg 42%
21:00 +21°C° 0 mm 2 mps 761 mmHg 44%
22:00 +21°C° 0 mm 1 mps 760 mmHg 43%
23:00 +21°C° 0 mm 1 mps 760 mmHg 42%

11 March, Thursday

Time Temperature Precipitation Wind Pressure Humidity
00:00 +18°C° 0 mm 0 mps 760 mmHg 40%
01:00 +21°C° 0 mm 1 mps 759 mmHg 38%
02:00 +20°C° 0 mm 2 mps 758 mmHg 35%
03:00 +21°C° 0 mm 3 mps 758 mmHg 33%
04:00 +20°C° 0 mm 3 mps 758 mmHg 34%
05:00 +20°C° 0 mm 3 mps 758 mmHg 35%
06:00 +20°C° 0 mm 3 mps 758 mmHg 37%
07:00 +22°C° 0 mm 3 mps 758 mmHg 33%
08:00 +23°C° 0 mm 4 mps 758 mmHg 29%
09:00 +26°C° 0 mm 4 mps 758 mmHg 25%
10:00 +28°C° 0 mm 4 mps 757 mmHg 21%
11:00 +30°C° 0 mm 5 mps 757 mmHg 18%
12:00 +33°C° 0 mm 5 mps 756 mmHg 15%
13:00 +34°C° 0 mm 6 mps 755 mmHg 13%
14:00 +36°C° 0 mm 6 mps 755 mmHg 12%
15:00 +38°C° 0 mm 6 mps 754 mmHg 10%
16:00 +36°C° 0 mm 6 mps 754 mmHg 11%
17:00 +35°C° 0 mm 6 mps 753 mmHg 11%
18:00 +34°C° 0 mm 6 mps 753 mmHg 12%
19:00 +33°C° 0 mm 6 mps 753 mmHg 13%
20:00 +32°C° 0 mm 7 mps 753 mmHg 13%
21:00 +32°C° 0 mm 7 mps 752 mmHg 14%
22:00 +30°C° 0 mm 7 mps 752 mmHg 14%
23:00 +30°C° 0 mm 7 mps 752 mmHg 15%
Show more